Wind_Speed
22 26 24 24 16 16 15 9 8 12 9 13 12 13 3 7 13 15 18 15 8 12 11 7 10 11 9 9 13 16 17 17
26 30 29 24 21 16 16 11 13 13 11 7 12 14 11 8 9 13 16 13 8 10 6 10 9 12 8 9 13 16 18 16
31 37 32 15 16 16 18 16 10 10 4 8 8 13 10 10 7 10 13 13 11 12 11 11 8 9 6 9 12 16 15 17
34 30 26 17 18 21 20 1 2 7 3 7 10 14 8 8 3 4 14 9 12 7 10 10 9 9 4 9 11 13 12 15
34 38 37 25 10 7 11 10 3 9 4 7 11 14 13 6 11 10 10 9 10 12 14 11 8 6 4 10 13 9 12 15
24 30 32 33 21 16 15 17 12 14 7 6 13 16 15 17 13 14 18 21 21 18 16 11 5 3 5 10 13 7 14 16
14 16 29 31 28 24 19 14 16 16 14 11 12 16 16 11 15 17 21 15 19 19 18 14 7 1 5 12 16 8 12 12
18 17 22 36 35 29 25 22 19 19 18 18 17 21 20 12 15 7 15 16 21 19 15 8 2 1 5 13 18 10 14 14
28 22 26 29 28 34 32 30 27 26 23 24 19 19 14 13 14 15 14 14 16 23 12 6 2 1 4 12 7 14 13 15
36 32 32 26 26 30 39 36 33 31 28 26 26 17 11 6 10 21 26 21 18 20 13 9 5 1 1 4 15 21 21 17
41 39 40 38 30 28 35 45 43 36 36 32 30 26 8 14 13 6 9 14 19 20 17 12 11 6 5 8 16 20 18 17
48 47 45 36 30 32 31 37 44 46 44 38 34 36 26 19 9 9 12 16 16 17 18 13 12 12 12 10 9 7 16 15
51 51 47 45 29 26 28 30 35 37 43 44 37 32 31 21 19 5 5 14 19 19 20 17 14 15 15 13 11 14 20 12
51 52 49 39 30 28 30 26 29 35 36 41 42 34 28 19 20 20 19 12 18 23 22 18 14 14 14 13 17 18 17 9
51 51 53 49 42 33 30 29 29 31 32 23 24 25 20 17 17 12 13 17 18 24 20 18 15 14 14 14 18 20 17 16
55 55 55 55 48 41 33 36 37 36 33 30 28 28 26 23 17 13 12 10 19 18 21 22 17 14 14 16 19 19 18 18
53 57 59 58 53 47 44 38 42 40 40 32 34 31 32 25 20 16 17 21 15 17 18 23 23 20 14 16 18 18 18 18
57 55 58 60 60 57 53 48 43 47 41 39 36 35 31 28 24 23 22 24 26 20 18 19 18 21 20 20 20 20 21 21
57 58 58 60 60 59 58 56 52 50 50 48 44 40 39 37 33 28 27 24 21 20 16 16 20 21 25 25 25 23 24 24
Wind_Direction
224 221 229 227 235 237 247 282 295 299 281 308 322 10 15 272 287 241 262 267 266 245 235 221 222 224 230 231 242 247 240 237
213 221 225 233 236 255 251 276 269 295 289 322 308 315 333 339 274 272 269 266 257 225 264 228 213 235 228 249 254 256 252 242
213 219 219 252 250 271 267 266 296 293 296 276 290 301 314 340 263 266 287 284 263 241 230 226 221 241 257 272 273 271 268 255
213 222 225 239 253 265 275 91 328 1 330 278 297 298 296 355 191 284 279 289 295 244 230 215 222 232 273 292 300 289 256 236
210 218 226 227 259 295 216 217 210 274 247 293 312 297 285 303 222 238 250 242 273 267 247 265 258 274 323 316 320 276 223 220
213 229 232 231 237 241 248 248 250 259 272 286 323 305 296 282 281 243 219 237 262 254 251 262 270 280 326 329 328 261 207 208
213 208 218 230 231 231 243 247 271 272 276 286 278 281 278 267 281 306 203 240 230 246 251 246 259 39 301 318 320 237 207 193
230 237 227 223 231 229 239 254 254 267 274 281 268 267 273 274 271 238 193 220 238 239 238 250 195 269 307 306 313 190 196 189
242 238 248 245 230 227 240 246 249 253 270 272 274 286 294 275 263 213 204 227 242 243 230 205 171 270 322 307 322 168 152 157
242 244 250 257 253 245 235 239 247 252 256 261 268 278 321 334 299 292 224 233 233 231 217 187 148 186 13 314 102 131 119 125
243 244 253 253 265 267 255 236 237 242 249 255 262 271 282 333 279 319 221 210 226 210 200 194 156 161 133 83 89 110 113 126
251 253 257 265 268 265 253 244 234 237 245 249 258 267 273 281 311 290 251 222 225 215 189 195 164 162 171 136 118 123 131 125
251 254 257 260 257 260 254 245 242 238 238 242 249 261 269 279 283 299 156 221 221 205 191 194 181 171 178 189 189 152 148 143
251 257 262 262 261 249 251 246 247 241 245 242 244 251 257 263 261 254 260 274 228 209 202 196 189 189 172 178 169 146 176 200
241 248 255 257 259 251 249 235 237 235 232 239 231 233 228 238 246 228 246 230 213 220 210 207 203 194 183 184 187 193 195 211
237 239 247 253 256 254 245 236 236 233 230 228 226 227 232 236 233 223 229 232 215 212 212 211 201 215 205 195 199 192 192 191
235 238 240 242 246 247 251 242 233 235 232 234 230 231 238 239 230 238 226 228 218 228 215 219 211 208 210 226 213 206 196 196
234 235 238 242 242 244 245 245 239 234 234 239 235 230 230 234 234 244 244 228 216 220 217 213 208 223 217 228 230 215 209 206
235 232 234 238 240 242 244 245 243 240 233 236 235 231 228 231 232 232 237 234 230 231 234 244 248 231 220 225 234 228 222 216
Height
5886 5889 5891 5892 5894 5896 5897 5898 5898 5900 5900 5895 5896 5894 5894 5895 5894 5892 5893 5891 5889 5889 5889 5892 5893 5893 5893 5893 5893 5893 5892 5891
5881 5882 5883 5886 5891 5893 5893 5893 5894 5896 5897 5893 5893 5893 5893 5892 5893 5891 5890 5889 5886 5887 5888 5891 5890 5890 5889 5891 5890 5888 5886 5885
5875 5874 5880 5884 5886 5888 5890 5892 5892 5894 5896 5891 5891 5890 5893 5891 5889 5887 5888 5888 5886 5886 5887 5887 5887 5887 5886 5887 5885 5882 5879 5879
5872 5876 5878 5879 5880 5884 5886 5888 5889 5890 5892 5890 5890 5889 5889 5891 5890 5889 5888 5888 5888 5888 5887 5886 5886 5885 5882 5882 5879 5874 5874 5876
5867 5871 5872 5876 5880 5880 5881 5884 5883 5884 5887 5885 5886 5886 5887 5887 5890 5891 5888 5889 5888 5886 5884 5885 5884 5881 5878 5876 5872 5870 5871 5873
5863 5868 5872 5875 5877 5878 5878 5878 5879 5879 5880 5882 5881 5883 5883 5883 5884 5886 5885 5885 5885 5882 5880 5880 5876 5877 5875 5873 5870 5867 5868 5870
5859 5863 5866 5870 5872 5874 5875 5875 5874 5877 5876 5878 5877 5878 5877 5879 5878 5877 5876 5880 5882 5880 5878 5878 5877 5873 5874 5871 5868 5866 5868 5868
5853 5857 5861 5863 5867 5870 5870 5871 5872 5873 5874 5874 5873 5872 5873 5877 5876 5876 5873 5878 5880 5878 5875 5875 5876 5873 5872 5869 5866 5864 5866 5868
5847 5851 5854 5855 5860 5864 5865 5866 5868 5869 5872 5872 5872 5869 5869 5872 5871 5872 5872 5874 5878 5877 5874 5874 5874 5872 5870 5871 5864 5865 5866 5869
5841 5844 5844 5851 5855 5857 5858 5860 5861 5863 5866 5868 5868 5870 5868 5867 5866 5863 5866 5871 5874 5875 5872 5872 5870 5871 5871 5872 5866 5867 5871 5874
5834 5839 5841 5845 5849 5851 5849 5852 5854 5857 5859 5863 5864 5866 5868 5867 5866 5862 5864 5869 5873 5874 5872 5871 5868 5870 5871 5873 5872 5872 5874 5878
5826 5829 5832 5838 5843 5840 5839 5840 5846 5851 5851 5856 5859 5861 5865 5865 5864 5862 5861 5867 5872 5872 5872 5871 5867 5867 5871 5876 5876 5877 5878 5881
5816 5819 5824 5829 5835 5833 5833 5839 5839 5843 5844 5848 5854 5859 5860 5860 5861 5860 5859 5864 5868 5871 5870 5870 5869 5868 5870 5874 5877 5879 5882 5884
5806 5808 5814 5818 5824 5826 5825 5829 5833 5836 5837 5841 5848 5852 5856 5857 5857 5858 5858 5862 5865 5869 5870 5869 5869 5870 5867 5872 5877 5880 5882 5885
5797 5800 5801 5806 5812 5817 5819 5823 5826 5830 5834 5836 5841 5845 5849 5852 5854 5855 5856 5858 5860 5865 5867 5869 5870 5870 5869 5872 5876 5878 5881 5882
5786 5789 5791 5795 5802 5807 5812 5817 5821 5824 5829 5833 5837 5839 5843 5846 5849 5850 5853 5855 5858 5862 5865 5867 5868 5870 5869 5870 5873 5875 5879 5881
5772 5775 5779 5784 5791 5796 5800 5806 5812 5816 5820 5825 5830 5833 5837 5840 5843 5845 5848 5853 5856 5858 5860 5862 5865 5867 5867 5870 5871 5873 5875 5878
5757 5763 5766 5770 5778 5785 5789 5795 5802 5807 5810 5815 5820 5825 5829 5833 5836 5840 5844 5848 5852 5853 5854 5858 5859 5862 5864 5868 5869 5871 5873 5876
5742 5749 5753 5756 5763 5771 5777 5783 5790 5797 5803 5804 5808 5814 5821 5826 5829 5834 5838 5842 5845 5847 5850 5852 5854 5855 5859 5863 5866 5868 5870 5871